Preview of NWS' New Version of Forecast
This preview is not operational and should not be used for support decisions.
Latest weather observations around

Brunswick, Malcolm McKinnon Airport (KSSI)

Using English Units (Switch to International System of Units)
Date/ Time (EDT) Wind (mph) Vis. (mi) Weather Sky Cond. Temp (°F) Rel. Humidity Wind Chill (°F) Heat Index (°F) Pressure Precip. (in)
Air Dwpt 6 hour Altimeter (inHg) Sea level (inHg) 1 hr 3 hr 6 hr
Max Min
Jun 18 15:53 SE 14 10 Clear CLR 87        %     29.94 29.95      
Jun 18 14:53 SE 10 10 Mostly Clear FEW070 86        %     29.95 29.96      
Jun 18 13:53 SSE 13 10 Clear CLR 87        %     29.98 29.98      
Jun 18 12:53 SW 7 10 Clear CLR 87        %     30 30      
Jun 18 11:53 SW 6 10 Clear CLR 86        %     30.01 30.01      
Jun 18 10:53 SSW 8 10 Clear CLR 83        %     30.01 30.01      
Jun 18 10:19 SSW 8 10 Mostly Clear FEW014 FEW020 83        %     30.01        
Jun 18 09:53 SW 7 10 Mostly Cloudy BKN015 81        %     30.02 30.02      
Jun 18 09:49 SSW 9 10 Mostly Cloudy BKN015 82        %     30.02        
Jun 18 09:30 WSW 5 10 Partly Cloudy SCT013 82        %     30.02        
Jun 18 08:53 SW 9 10 Mostly Cloudy BKN013 81        %     30.03 30.03      
Jun 18 07:53 WSW 8 10 Clear CLR 79        %     30.03 30.03      
Jun 18 06:53 W 3 10 Clear CLR 77        %     30.02 30.02      
Jun 18 05:53 Calm 10 Mostly Clear FEW029 FEW060 78        %     30 30      
Jun 18 05:03 SSW 6 10 Partly Cloudy FEW018 SCT024 79        %     30        
Jun 18 04:53 SSW 6 10 Mostly Cloudy SCT020 BKN026 79        %     29.99 29.99      
Jun 18 04:35 SW 3 10 Mostly Cloudy SCT018 BKN024 BKN070 80        %     30        
Jun 18 03:53 SSE 7 10 Mostly Cloudy FEW019 SCT024 BKN055 81        %     30.01 30.01      
Jun 18 02:53 SE 7 10 Mostly Cloudy SCT021 BKN032 81        %     30.01 30.02      
Jun 18 02:02 SE 9 10 Partly Cloudy SCT021 SCT028 81        %     30.03        
Jun 18 01:53 SE 9 10 Mostly Cloudy SCT021 BKN028 81        %     30.03 30.03      
Jun 18 01:32 SE 10 10 Mostly Cloudy BKN023 81        %     30.04        
Jun 18 00:53 SSE 8 10 Mostly Clear FEW022 81        %     30.05 30.05      
Jun 17 23:53 SSE 7 10 Partly Cloudy SCT022 81        %     30.06 30.06      
Jun 17 22:53 SSE 8 10 Mostly Clear FEW018 81        %     30.06 30.06      
Jun 17 22:41 S 9 10 Partly Cloudy FEW016 SCT022 81        %     30.06        
Jun 17 22:34 SSE 11 10 Mostly Cloudy BKN019 81        %     30.06        
Jun 17 22:26 SE 10 10 Partly Cloudy SCT019 81        %     30.05        
Jun 17 22:07 SSE 9 10 Mostly Cloudy BKN020 81        %     30.05        
Jun 17 21:53 SSE 8 10 Partly Cloudy SCT019 81        %     30.05 30.05      
Jun 17 20:53 SSE 10 10 Mostly Cloudy SCT019 SCT034 BKN047 82        %     30.04 30.04      
Jun 17 19:53 SSE 11 10 Clear CLR 82        %     30.05 30.05      
Jun 17 18:53 SSE 10 10 Clear CLR 84        %     30.05 30.05      
Jun 17 17:53 SSE 10 10 Clear CLR 85        %     30.06 30.06      
Jun 17 16:53 SE 15 10 Clear CLR 86        %     30.05 30.05      
Jun 17 15:53 ESE 16 10 Mostly Clear FEW018 87        %     30.06 30.06      
Jun 17 14:53 ESE 14 10 Clear CLR 87        %     30.08 30.08      
Jun 17 13:53 SE 11 10 Clear CLR 87        %     30.09 30.09      
Jun 17 12:53 SE 10 10 Clear CLR 86        %     30.1 30.1      
Jun 17 11:53 SE 7 10 Clear CLR 85        %     30.11 30.11      
Jun 17 10:53 SE 10 10 Clear CLR 85        %     30.1 30.11      
Jun 17 09:53 6 10 Mostly Clear FEW020 84        %     30.09 30.1      
Jun 17 08:53 SW 7 10 Clear CLR 82        %     30.08 30.09      
Jun 17 07:53 SSW 6 10 Clear CLR 79        %     30.07 30.07      
Jun 17 06:53 Calm 10 Clear CLR 77        %     30.06 30.06      
Jun 17 05:53 Calm 10 Clear CLR 77        %     30.04 30.05      
Jun 17 04:53 Calm 10 Clear CLR 77        %     30.03 30.04      
Jun 17 03:53 SSW 6 10 Clear CLR 79        %     30.04 30.04      
Jun 17 02:53 SW 5 10 Clear CLR 79        %     30.03 30.03      
Jun 17 01:53 S 5 10 Clear   80        %     30.04 30.04      
Jun 17 00:53 SSW 3 10 Clear CLR 80        %     30.04 30.04      
Jun 16 23:53 SSW 6 10 Mostly Clear FEW016 81        %     30.05 30.05      
Jun 16 22:53 SSE 8 10 Partly Cloudy SCT018 SCT024 82        %     30.04 30.04      
Jun 16 21:53 SSE 9 10 Clear CLR 82        %     30.04 30.04      
Jun 16 20:53 SSE 9 10 Clear CLR 82        %     30.04 30.05      
Jun 16 19:53 SE 11 10 Mostly Cloudy BKN095 83        %     30.03 30.03      
Jun 16 18:53 SE 14 10 Mostly Cloudy BKN095 85        %     30.04 30.04      
Jun 16 17:53 SE 14 10 Clear CLR 86        %     30.03 30.03      
Jun 16 16:53 SE 13 10 Partly Cloudy SCT090 85        %     30.03 30.03      
Jun 16 15:53 SE 13 10 Mostly Cloudy BKN100 86        %     30.04 30.05      
Jun 16 14:53 SE 13 10 Mostly Clear FEW095 87        %     30.06 30.06      
Jun 16 13:53 ESE 11 10 Clear CLR 87        %     30.07 30.07      
Jun 16 13:43 SE 13 10 Clear CLR 87        %     30.08        
Jun 16 12:53 ESE 8 10 Partly Cloudy SCT100 86        %     30.09 30.09      
Jun 16 11:53 7 10 Cloudy OVC095 84        %     30.1 30.11      
Jun 16 10:53 S 6 10 Cloudy OVC085 83        %     30.11 30.11      
Jun 16 09:53 SSE 8 10 Cloudy FEW017 SCT024 OVC080 83        %     30.1 30.11      
Jun 16 09:36 SSE 9 10 Cloudy SCT018 OVC080 84        %     30.1        
Jun 16 09:25 SSE 8 10 Mostly Cloudy BKN017 BKN080 84        %     30.1        
Jun 16 08:53 S 5 10 Mostly Clear FEW017 83        %     30.09 30.09      
Jun 16 07:53 SSE 7 10 Mostly Clear FEW017 81        %     30.07 30.07      
Jun 16 07:12 Calm 10 Mostly Clear FEW015 79        %     30.05        
Jun 16 06:53 Calm 10 Mostly Cloudy SCT016 BKN024 78        %     30.05 30.05      
Jun 16 06:34 Calm 10 Mostly Cloudy BKN016 BKN023 78        %     30.04        
Jun 16 05:53 SSE 6 10 Partly Cloudy SCT019 79        %     30.03 30.03      
Jun 16 04:53 Calm 10 Mostly Clear FEW015 77        %     30.03 30.03      
Jun 16 03:53 SSE 3 10 Partly Cloudy SCT017 79        %     30.03 30.04      
Jun 16 03:23 S 3 10 Partly Cloudy FEW017 SCT028 80        %     30.05        
Jun 16 03:13 SSE 3 10 Mostly Cloudy SCT017 BKN027 80        %     30.05        
Jun 16 02:53 SSE 5 10 Partly Cloudy SCT017 79        %     30.06 30.06      
Jun 16 01:53 SE 5 10 Mostly Clear FEW017 79        %     30.08 30.08      
Jun 16 00:53 SSE 5 10 Mostly Clear FEW018 80        %     30.1 30.1      
Jun 15 23:53 SE 6 10 Clear CLR 80        %     30.1 30.1      
Jun 15 22:53 ESE 6 10 Clear CLR 80        %     30.11 30.11      
Jun 15 21:53 ESE 7 10 Mostly Clear FEW019 80        %     30.11 30.11      
Jun 15 20:53 E 9 10 Mostly Clear FEW019 81        %     30.11 30.11      
Jun 15 19:53 E 9 10 Clear CLR 82        %     30.1 30.1      
Jun 15 18:53 E 10 10 Mostly Clear FEW025 83        %     30.1 30.1      
Jun 15 17:53 E 11 10 Clear CLR 84        %     30.09 30.09      
Jun 15 16:53 E 11 10 Clear CLR 86        %     30.09 30.09      
Jun 15 15:53 E 13 10 Clear CLR 86        %     30.11 30.11      
May 15 11:53 SSE 15 10 Mostly Cloudy FEW015 BKN100 80        %     30 30      
May 14 23:27 ESE 15 10 Cloudy BKN014 BKN022 OVC110 74        %     30   0    
May 14 00:53 Calm 10 Clear CLR 75        %     30.05 30.05      
May 13 07:53   10 Clear CLR 73        %     30.11 30.11      
May 13 02:53 SSW 6 10 Clear CLR 74        %     30.08 30.08      
May 12 09:53 S 8 10 Clear CLR 79        %     30.15 30.15      
May 12 03:53 SSW 5 10 Clear CLR 73        %     30.09 30.09      
May 11 20:53 SSE 6 10 Clear CLR 77        %     30.06 30.06      
Jun 11 23:53 E 5 10 Mostly Clear FEW023 79        %     30.16 30.16      
Jun 10 10:53 ENE 9 10 Mostly Clear FEW019 82        %     30.11 30.11      
Jun 10 05:53 Calm 10 Clear CLR 69        %     30.03 30.03      
Jun 08 11:07 N 11 10 Cloudy BKN011 BKN018 OVC033 71        %     29.83   0    
Jun 07 23:53 NE 15 2.5 Rain and Fog/Mist BKN013 OVC022 73        %     29.75 29.75 0    
Jun 07 22:53 NE 18 5 Rain and Fog/Mist BKN013 OVC018 74        %     29.72 29.72 0 1  
Jun 07 21:58 NE 18 3 Rain and Fog/Mist FEW009 BKN020 OVC039 74        %     29.71   0    
Jun 07 21:53   3 Heavy Rain and Fog/Mist FEW011 SCT017 OVC037 74        %     29.71 29.71 0    
Jun 07 17:40 ENE 6 7 Light Rain FEW009 BKN017 OVC100 75        %     29.7   0    
Jun 07 16:04 E 6 10 Light Rain BKN015 BKN046 OVC060 77        %     29.7   0    
Jun 07 14:20 ENE 6 5 Rain and Fog/Mist SCT028 BKN060 OVC120 77        %     29.72   0    
Notice The following observation data may not be complete
Jun 05 18:56   3 Light Rain and Fog/Mist BKN033 BKN048 OVC110          %         0    
Jun 05 18:41 WSW 6 1.5 Heavy Rain and Fog/Mist FEW025 BKN033 BKN049 77        %     29.84   0    
Jun 05 16:29 S 10 4 Light Rain FEW011 BKN045 OVC060 81        %     29.81   0